Other Public Products
Issued by NWS Charleston, SC

Current Version | Previous Version | Graphics & Text | Print | Product List | Glossary On
Versions: 1 2 3 4 5 6 7 8 9 10 11 12 13 14 15 16 17 18 19 20 21 22 23 24 25 26 27 28 29 30 31 32 33 34 35 36 37 38 39 40 41 42 43 44 45 46 47 48 49 50
802
FPUS82 KCHS 262027
OPUCHS

TEST...KCHS/KSAV Gateway Observations...TEST
National Weather Service Charleston SC
400 PM EDT THU APR 26 2018

NOTE: "fair" indicates few or no clouds below 12,000 feet with no
significant weather and/or obstructions to visibility.

SCZ050-WAZ558-NCZ071-TXZ119-213-PAZ071-DCZ001-FLZ074-172-MI076-
NYZ176-178-MAZ016-IL014-TNZ027-NJZ106-GAZ044-MD014-262100-

...Gateway Observations for Charleston International...

CITY           SKY/WX    TMP DP  RH WIND       PRES   REMARKS
Chas Airport   FAIR      77  57  50 S9        29.82F
Seattle        SUNNY     75  45  34 N8        29.99F
Charlotte      CLOUDY    69  55  60 SE9       29.84F
Dallas DFW     MOSUNNY   71  44  37 N9        29.98F
Dallas Love    MOSUNNY   71  44  37 N7        29.99F
Philladelphia  FAIR      66  41  40 W14       29.81F
Wash National  FAIR      71  36  27 NW8       29.84F
Baltimore      FAIR      69  37  30 NW13      29.83F
Miami          FAIR      83  66  56 S9        29.91F
Detroit        FAIR      62  34  35 VRB3      29.89F
Newark         FAIR      69  42  37 W18       29.75S
Laguardia      FAIR      68  40  35 NW13G21   29.74F
J F K          FAIR      68  42  38 W18       29.76S
Boston Logan   FAIR      67  41  38 W20G26    29.62R
Ft. Lauderdale FAIR      81  66  60 SE12      29.89F
Chicago O`Hare CLOUDY    65  28  24 VRB7      29.88F
Chicago Midway CLOUDY    64  28  25 VRB6      29.89F
Houston Bush   FAIR      75  49  39 NW10      29.96F
Houston Hobby  FAIR      74  46  36 MISG      29.96F
Nashville      PTSUNNY   60  53  77 E7        29.86F
Atlanta        LGT RAIN  58  56  93 E13G21    29.82F

$$

GAZ044-118-TXZ119-213-NCZ071-DCZ001-MDZ014-506-PAZ021-071-NJZ106-
NYZ176-178-MAZ106-OHZ011-021-055-MIZ076-KYZ091-ILZ014-INZ047-
MNZ060-ONZ431-262100-

...Gateway Observations for Savannah International...

CITY           SKY/WX    TMP DP  RH WIND       PRES   REMARKS
Savannah Arpt  PTSUNNY   79  54  41 SW7       29.83F
Atlanta        LGT RAIN  58  56  93 E13G21    29.82F
Charlotte      CLOUDY    69  55  60 SE9       29.84F
Dallas DFW     MOSUNNY   71  44  37 N9        29.98F
Houston Bush   FAIR      75  49  39 NW10      29.96F
Wash National  FAIR      71  36  27 NW8       29.84F
Wash Dulles    FAIR      69  37  30 NW9       29.84F
Baltimore      FAIR      69  37  30 NW13      29.83F
Philadelphia   FAIR      66  41  40 W14       29.81F
Newark         FAIR      69  42  37 W18       29.75S
Laguardia      FAIR      68  40  35 NW13G21   29.74F
J F K          FAIR      68  42  38 W18       29.76S
Boston         FAIR      67  41  38 W20G26    29.62R
Pittsburg      FAIR      60  35  39 W6        29.87F
Akron          FAIR      61  36  39 W6        29.89F
Cleveland      FAIR      54  39  57 N12       29.93F
Cincinnati     PTSUNNY   67  34  29 NW3       29.84F
Columbus       FAIR      64  43  46 CALM      29.84F
Detroit        FAIR      62  34  35 VRB3      29.89F
Chicago O`Hare CLOUDY    65  28  24 VRB7      29.88F
Minneapolis    FAIR      66  34  30 N14G23    29.86S
Indianapolis   FAIR      65  35  33 NW7       29.87F
Toronto Canada PTSUNNY   59  36  41 W14       29.83S

$$




USA.gov is the U.S. government's official web portal to all federal, state and local government web resources and services.